CST,Max TemperatureF,Mean TemperatureF,Min TemperatureF,Max Dew PointF,MeanDew PointF,Min DewpointF,Max Humidity, Mean Humidity, Min Humidity, Max Sea Level PressureIn, Mean Sea Level PressureIn, Min Sea Level PressureIn, Max VisibilityMiles, Mean VisibilityMiles, Min VisibilityMiles, Max Wind SpeedMPH, Mean Wind SpeedMPH, Max Gust SpeedMPH,PrecipitationIn, CloudCover, Events, WindDirDegrees
2012-12-1,72,55,37,24,21,17,42,28,14,30.00,29.87,29.75,10,10,8,21,10,26,0.00,0,,307
2012-12-2,72,52,31,27,20,11,63,39,14,30.05,29.91,29.72,10,10,10,23,11,29,0.00,0,,246
2012-12-3,70,55,40,28,22,13,37,28,18,30.19,29.89,29.65,10,10,6,24,14,30,0.00,2,,5
2012-12-4,58,44,30,27,23,19,69,49,28,30.38,30.28,30.11,10,10,10,14,8,16,0.00,1,,233
2012-12-5,61,45,29,30,24,19,69,46,23,30.25,30.06,29.80,10,10,10,22,11,24,0.00,0,,193
2012-12-6,62,49,36,33,26,17,53,44,35,29.93,29.85,29.76,10,10,8,26,13,31,0.00,0,,7
2012-12-7,63,44,25,27,22,17,63,44,25,29.94,29.86,29.73,10,10,10,17,8,21,0.00,1,,346
2012-12-8,60,40,19,30,23,17,82,55,28,29.94,29.81,29.63,10,10,5,22,10,26,0.00,2,,257
2012-12-9,45,32,18,32,15,2,82,57,31,30.30,30.05,29.80,10,9,4,37,20,46,T,6,,5
2012-12-10,42,24,6,12,5,1,80,49,18,30.28,30.11,29.96,10,10,9,20,10,24,0.00,1,,248
2012-12-11,43,29,14,15,8,2,67,45,22,30.15,30.08,29.99,10,10,10,18,9,22,0.00,1,,261
2012-12-12,65,39,12,13,9,4,70,41,11,30.06,29.99,29.89,10,10,8,20,11,23,0.00,0,,211
2012-12-13,65,42,19,16,12,8,62,37,11,30.09,30.00,29.93,10,10,5,23,10,26,0.00,0,,210
2012-12-14,53,42,30,46,36,16,92,68,44,29.95,29.69,29.52,10,8,2,39,16,48,0.17,4,Rain-Thunderstorm,212
2012-12-15,57,42,27,29,26,21,92,59,25,29.80,29.72,29.60,10,10,10,33,13,40,0.00,0,,241
2012-12-16,51,38,25,30,24,15,89,57,24,29.86,29.73,29.63,10,9,6,28,13,35,0.00,0,,260
2012-12-17,60,42,23,23,19,15,92,55,17,29.91,29.81,29.70,10,10,10,25,12,30,0.00,0,,269
2012-12-18,54,40,26,24,20,17,69,47,24,29.85,29.75,29.66,10,10,10,20,10,23,0.00,0,,184
2012-12-19,62,43,23,26,21,7,63,43,23,30.14,29.68,29.40,10,7,0,40,20,53,T,3,Fog-Snow,280
2012-12-20,51,31,11,14,5,-3,67,39,11,30.44,30.36,30.16,10,10,10,17,9,22,0.00,0,,261
2012-12-21,63,39,15,12,4,-6,61,34,7,30.39,30.25,30.14,10,10,10,23,9,29,0.00,0,,225
2012-12-22,60,39,18,15,7,1,47,29,10,30.12,30.02,29.93,10,10,9,12,6,15,0.00,0,,251
2012-12-23,65,42,19,13,7,-3,62,35,7,30.06,29.94,29.83,10,10,10,24,9,29,0.00,0,,325
2012-12-24,53,38,23,19,13,9,60,40,20,29.99,29.83,29.65,10,10,9,25,12,30,0.00,0,,144
2012-12-25,23,16,9,14,10,4,88,78,67,30.38,30.09,29.80,10,3,0,35,22,43,T,6,Fog-Snow,9
2012-12-26,30,16,2,22,12,-1,87,78,69,30.33,30.09,29.84,10,10,10,26,13,32,0.00,0,,199
2012-12-27,44,28,12,24,17,9,81,62,43,29.95,29.80,29.69,10,10,7,21,12,24,0.00,1,,16
2012-12-28,38,26,14,17,14,11,88,63,37,30.25,30.04,29.90,10,9,7,16,8,24,0.00,3,,343
2012-12-29,41,27,12,18,14,6,84,59,34,30.40,30.30,30.15,10,10,10,22,10,26,0.00,0,,237
2012-12-30,41,30,19,25,18,15,84,62,40,30.18,30.07,29.94,10,10,10,25,17,31,0.00,3,,200
2012-12-31,35,26,17,32,23,14,92,78,64,30.17,29.96,29.89,10,5,0,23,12,28,0.14,8,Fog-Rain-Snow,356